Dewpoint
56 57 57 57 56 56 56 57 58 58 58 59 60 61 62 62 60 49 29 44 48 66 64 39 40 36 41 44 44 40 40 35 29 25 28 24 21 26 25 28 30 32 35 40 46
56 55 56 56 56 57 57 58 58 58 58 59 60 61 61 61 50 24 52 64 65 67 36 34 33 33 37 38 40 37 38 30 27 27 28 27 25 27 25 27 31 31 35 41 45
57 56 56 56 57 58 58 58 58 58 59 59 60 61 61 58 41 24 61 64 64 56 36 35 33 33 34 36 34 33 33 31 31 31 28 24 27 30 29 33 31 31 33 36 40
57 57 58 57 58 58 58 58 58 58 59 60 60 61 61 51 26 28 60 62 62 40 33 31 29 31 32 32 29 32 30 29 32 28 27 26 30 30 34 34 31 32 32 32 33
56 57 57 58 58 58 58 58 58 59 59 60 60 60 53 35 24 27 55 51 31 33 33 32 26 28 29 27 26 25 27 26 28 30 30 30 30 30 30 30 30 31 31 31 30
55 56 57 58 58 58 58 58 58 58 59 60 59 60 49 24 26 27 26 26 31 31 30 30 29 29 26 26 24 26 23 24 28 29 30 30 31 31 29 29 29 29 29 28 27
55 56 57 58 57 58 57 57 58 58 59 59 59 51 35 26 27 24 26 26 29 30 29 29 27 23 24 25 26 22 21 23 25 27 28 30 29 30 29 28 27 26 26 25 24
55 56 56 56 57 57 57 57 58 58 58 59 59 45 25 26 26 22 24 24 28 31 34 34 29 26 24 25 21 19 17 20 25 27 28 28 21 30 27 27 26 24 23 24 20
55 56 56 56 57 57 57 57 57 58 58 59 49 39 20 34 21 22 23 23 27 30 33 31 34 30 28 22 16 20 7 17 25 25 26 26 24 31 28 26 26 24 23 21 20
56 56 56 56 57 56 56 56 56 56 52 44 36 24 20 17 24 25 25 26 25 28 31 31 28 24 21 16 10 13 12 10 16 25 25 25 26 30 28 26 27 24 22 22 19
56 56 57 56 56 56 51 42 39 36 32 26 21 21 20 22 26 26 27 26 26 25 21 26 23 17 14 20 20 16 16 16 19 25 26 23 23 27 27 27 27 24 21 20 18
57 57 57 57 56 55 48 36 37 38 27 30 27 25 26 25 24 28 28 24 23 20 21 22 18 25 23 23 23 21 20 20 21 24 25 23 26 26 27 26 26 25 22 20 19
56 57 57 56 54 48 42 40 45 40 25 28 27 24 26 26 26 29 28 25 23 21 21 20 27 26 24 25 24 24 22 19 18 26 27 27 23 24 27 26 25 24 24 20 21
56 57 57 55 47 41 42 45 46 44 21 25 27 28 28 30 31 32 30 31 26 24 24 23 27 24 25 24 23 22 24 23 24 25 17 23 8 26 24 24 23 23 22 21 22
57 57 56 54 42 37 44 47 45 41 11 26 27 31 29 28 32 33 30 32 28 25 27 25 25 26 26 24 25 25 27 26 27 24 19 18 19 21 24 22 22 21 22 22 21
55 54 54 47 45 44 45 45 41 22 17 28 29 28 27 28 28 30 26 28 29 28 27 26 28 25 26 27 26 27 25 25 24 21 17 15 18 15 20 19 20 20 20 20 18
54 54 51 44 40 46 45 40 22 16 27 27 28 29 27 26 26 27 26 22 22 21 21 23 24 23 25 25 27 25 23 16 20 22 18 18 17 12 21 18 18 19 18 17 18
54 53 46 38 44 46 41 29 19 20 21 30 28 28 26 26 27 28 27 24 18 17 15 15 20 23 22 23 21 20 19 12 11 8 9 20 15 15 17 18 18 18 17 19 20
54 37 36 33 42 43 34 20 22 23 27 28 28 27 26 24 21 24 22 23 20 15 14 10 13 19 18 19 19 20 15 22 11 9 9 8 13 17 15 16 16 16 18 21 22
35 31 31 27 39 40 30 28 24 24 25 27 26 26 24 26 20 20 20 26 21 16 17 12 5 13 17 17 20 18 19 16 16 9 9 5 9 9 15 15 15 16 18 21 24
29 28 24 30 34 33 26 25 23 22 26 25 26 27 23 24 22 19 16 26 26 17 17 13 8 10 11 14 13 17 13 13 15 12 8 8 9 8 11 12 15 15 17 20 21
33 22 25 31 27 28 24 23 27 22 24 23 24 24 22 22 18 19 17 24 25 20 14 14 14 6 4 12 15 15 12 12 13 13 14 16 15 11 12 12 14 12 15 17 20
26 22 24 27 22 20 24 22 21 22 22 21 21 21 19 18 17 15 20 29 24 20 17 18 12 11 11 16 15 9 10 11 11 20 19 15 12 11 13 14 15 18 18 18 18
19 19 18 24 22 18 19 20 20 20 20 17 14 16 16 15 16 15 19 26 24 22 26 22 16 12 13 14 16 14 15 15 12 17 14 14 13 14 15 17 15 16 16 16 19
25 26 22 15 14 18 17 17 13 15 15 16 13 13 9 7 9 8 17 24 23 31 23 21 16 13 13 11 11 10 10 9 13 13 11 12 12 12 14 16 15 15 17 19 20
24 21 19 15 12 12 16 9 7 7 9 10 9 10 7 6 11 10 16 17 16 26 23 23 18 19 14 13 15 13 14 13 13 12 11 12 14 17 18 17 17 17 19 20 20
26 22 29 23 15 17 19 16 13 13 14 13 11 13 11 14 14 17 19 19 19 20 23 20 21 20 19 14 14 14 17 15 15 14 16 16 18 18 19 19 20 21 21 21 22
Lifted_Index
0 1 2 3 4 4 5 5 6 6 6 7 7 6 6 6 7 7 7 7 6 5 5 5 6 5 4 3 3 2 2 3 5 6 6 7 7 8 8 8 8 9 9 7 6
0 1 2 3 3 4 4 5 6 6 6 6 6 6 6 6 7 7 7 6 5 5 6 6 5 4 3 3 2 2 2 4 5 6 7 7 7 8 8 8 8 9 9 8 7
0 1 2 3 3 3 4 4 5 6 6 6 6 6 6 6 6 7 8 7 7 7 7 6 5 4 2 2 2 2 3 5 6 7 7 7 7 8 8 8 8 9 9 9 8
0 1 2 2 3 3 4 4 5 5 5 6 6 6 6 5 5 8 10 9 8 8 8 7 5 3 2 2 2 3 4 6 7 8 8 8 8 8 8 8 9 10 10 10 10
1 1 2 2 3 3 3 4 4 5 5 5 6 6 6 6 7 9 11 10 10 9 8 6 5 3 2 2 3 4 5 7 8 8 8 8 8 8 8 9 10 10 11 11 11
2 2 2 3 3 3 3 4 5 5 5 6 6 6 6 7 9 10 11 11 10 8 7 7 6 5 4 3 4 5 7 8 8 8 8 8 8 8 9 10 10 10 11 11 11
3 3 3 3 3 3 4 4 5 6 6 6 6 6 7 8 10 11 11 10 10 9 7 7 7 7 6 5 6 7 7 7 8 8 8 8 7 8 9 10 10 10 11 11 12
4 3 3 3 3 4 4 5 5 6 6 6 6 6 8 9 10 10 10 10 10 9 8 8 8 7 7 6 6 6 6 7 8 8 9 8 7 8 9 10 10 11 11 12 12
4 4 4 4 4 4 5 5 6 6 6 6 6 7 8 9 10 10 10 9 9 9 8 8 8 7 6 6 6 5 6 6 7 8 9 8 7 8 9 10 10 11 12 13 13
4 4 4 4 4 5 6 6 6 6 7 7 7 8 8 9 9 10 9 9 9 8 8 7 7 6 6 5 5 5 5 6 7 8 8 7 7 8 9 10 10 11 12 13 14
4 4 4 4 5 6 7 7 6 6 7 7 8 8 8 9 9 9 9 9 8 7 6 6 6 6 6 6 5 5 5 5 7 7 7 7 7 7 9 10 10 11 12 13 14
4 4 4 5 6 7 7 6 6 6 6 7 8 8 8 8 8 8 8 8 7 6 6 5 5 6 6 6 5 5 5 5 6 7 7 6 6 7 8 9 11 12 12 13 14
4 5 5 6 7 7 6 5 5 5 6 6 7 7 8 7 7 7 7 7 6 5 5 5 6 6 6 5 5 5 5 6 6 6 6 5 5 5 7 8 10 11 12 13 13
5 5 6 7 7 6 5 5 5 5 5 5 6 7 7 7 7 7 7 7 6 5 5 5 6 6 5 6 6 6 6 6 6 5 5 4 4 4 5 7 8 10 11 13 13
6 6 7 6 6 6 5 5 5 4 4 4 6 6 7 6 6 7 7 7 6 6 6 6 6 6 6 6 6 6 7 6 6 5 4 4 3 4 5 6 7 9 11 12 13
7 7 6 6 5 6 6 5 5 4 3 4 5 6 6 6 6 6 7 7 6 6 6 6 6 7 7 7 7 7 6 5 5 4 3 3 4 4 5 6 7 9 10 12 13
7 6 6 6 6 6 5 5 4 3 4 4 5 5 5 5 6 6 6 6 6 5 5 5 6 7 7 7 7 7 5 4 2 2 2 4 4 4 5 7 8 9 11 12 13
7 6 6 6 6 6 5 4 3 3 4 4 5 5 5 5 6 6 6 5 6 5 5 4 4 6 7 7 7 6 5 3 2 2 3 4 4 5 6 7 8 10 11 12 13
7 7 7 7 7 6 5 4 4 4 4 4 4 4 4 5 5 5 5 5 6 6 5 4 4 6 7 7 7 6 5 4 3 2 2 3 4 5 6 7 8 10 11 12 12
7 7 7 7 6 6 5 4 5 5 5 5 4 4 4 4 5 5 5 6 6 7 7 6 5 6 7 7 7 6 5 5 4 3 2 2 4 5 6 7 8 9 11 11 12
7 7 7 7 6 5 5 5 6 6 6 6 5 5 5 5 5 5 5 6 7 8 8 7 5 5 6 6 6 6 5 5 4 3 2 2 3 5 6 7 8 10 11 11 11
7 8 8 8 6 5 5 6 6 7 7 7 6 6 6 5 5 5 6 7 8 8 7 7 5 4 4 5 6 6 5 5 5 4 4 3 4 5 6 7 8 10 10 10 11
8 8 8 7 6 6 6 6 7 7 7 7 7 7 6 6 5 5 6 7 8 8 7 7 5 4 4 5 6 6 6 6 5 5 4 4 4 5 6 7 8 9 10 10 10
8 7 7 7 6 6 6 6 6 6 7 7 7 6 6 5 5 5 6 7 8 8 8 7 6 4 4 5 6 6 6 6 6 5 4 4 5 5 6 7 8 9 9 9 9
7 7 7 6 6 6 6 5 5 6 6 6 6 6 6 5 5 5 6 7 7 8 8 7 6 5 5 5 5 5 5 5 5 4 4 4 5 5 6 7 8 9 9 8 8
6 6 6 6 5 5 5 5 5 5 5 6 6 6 5 5 5 6 6 6 7 7 7 6 6 5 5 5 5 5 5 5 5 4 5 5 5 6 7 8 8 8 7 7 8
5 6 5 5 5 5 5 5 5 5 5 5 5 5 5 5 6 7 7 7 6 6 6 6 5 5 4 5 5 4 4 4 5 5 5 5 6 7 8 8 8 7 7 7 7